Back to catalog

STARLINK-30909

AliveCommunicationsVLEO
NORAD 58363·PAYLOAD·🇺🇸 United States

Launched Nov 18, 2023 from Cape Canaveral Space Force Station

Loading…

Next Passes (next 24 hours)

TLE

FreshSource: CelesTrak SupGP

Epoch: Sep 14, 2026, 15:19 UTC

1 58363C 23177N   26257.63868056  .00030448  00000+0  11028-2 0  2578
2 58363  43.0038   3.5223 0001770 268.8433 131.3270 15.27563946    15

Track STARLINK-30909 in real time with AllMySat

Download on the App Store